[[{"header":{"parameterUnit":"m.s-1","parameterCategory":1,"la1":30.2991,"la2":30.254,"lo1":-89.0895,"lo2":-89.0444,"dy":0.0017,"dx":0.0017,"nx":28,"ny":28,"refTime":"2025-03-26T21:00:00:Z","depth":0,"parameterNumber":2,"parameterNumberName":"U-component_of_WINDS"},"data":[0,0,0,0,0,0,0,0,0,0,0,0,0,0,0,0,0,0,0,0,0,0,0,0,0,0,0,0,0,0,0,0,0,0,0,0,0,0,0,0,0,0,0,0,0,0,0,0,0,0,0,0,0,0,0,0,0,0,0.5707,0.5707,0,0.5764,0.5765,0.5766,0.5777,0.5776,0.5776,0.5776,0.5838,0.584,0.5842,0,0,0,0,0,0,0,0,0,0,0,0,0,0.561,0.5612,0.5707,0.5707,0.5708,0.5764,0.5765,0.5766,0.5777,0.5776,0.5776,0.5775,0.5837,0.584,0.5842,0,0,0,0,0,0,0,0,0,0,0,0,0,0.5658,0.5612,0.5707,0.572,0.5722,0.5764,0.5765,0.5766,0.5777,0.5776,0.5776,0.5775,0.5836,0.5839,0.5842,0.5876,0,0,0.5852,0.5853,0,0,0,0,0,0,0,0,0.5656,0.5662,0.5718,0.5719,0.5722,0.5763,0.5754,0.5803,0.5777,0.5756,0.5776,0.5775,0.5814,0.5819,0.5831,0.5879,0.5881,0.5852,0.5854,0.5856,0.5856,0,0,0,0,0,0,0,0.5652,0.566,0.573,0.5718,0.5721,0.5725,0.5731,0.5763,0.5788,0.5758,0.5759,0.5766,0.5815,0.5828,0.5833,0.5882,0.5852,0.5855,0.5857,0.5858,0.5961,0.5962,0,0,0,0,0,0,0.5646,0.5657,0.5728,0.5731,0.5686,0.5727,0.5734,0.575,0.5788,0.5793,0.5766,0.5766,0.5823,0.5829,0.5835,0.5876,0.5856,0.5858,0.586,0.596,0.5961,0.5962,0,0,0,0,0,0,0.5644,0.5652,0.5725,0.5694,0.5704,0.573,0.5748,0.5752,0.5765,0.5794,0.5799,0.5775,0.5823,0.583,0.5865,0.5879,0.586,0.5863,0.5959,0.596,0.5962,0.596,0,0,0,0,0,0,0.5641,0.5651,0.5663,0.5694,0.5705,0.5754,0.5749,0.5753,0.577,0.577,0.5803,0.5808,0.5823,0.5861,0.5868,0.5883,0.5865,0.5958,0.596,0.5961,0.5959,0.5961,0.5962,0,0,0,0,0,0.5638,0.5661,0.5664,0.5672,0.5721,0.5755,0.5761,0.5776,0.5771,0.5784,0.5803,0.5807,0.5876,0.5864,0.5873,0.5888,0.5957,0.5959,0.5961,0.5958,0.596,0.5962,0,0,0,0,0,0,0.5632,0.5665,0.5669,0.5703,0.5726,0.5756,0.5773,0.5778,0.5804,0.5803,0.5822,0.5829,0.5863,0.588,0.5866,0.5923,0.5916,0.592,0.5911,0.5914,0.5915,0.5911,0.5868,0,0,0,0,0,0.5634,0.5658,0.5686,0.5714,0.5725,0.5747,0.5762,0.5772,0.5797,0.5807,0.5828,0.5853,0.588,0.5898,0.5925,0.5961,0.5969,0.5976,0.5978,0.598,0.5983,0.6004,0.6008,0.5968,0.5968,0.5968,0,0,0.564,0.5661,0.5675,0.5713,0.5732,0.5757,0.5755,0.5782,0.5801,0.5811,0.5845,0.5862,0.5891,0.5927,0.5944,0.5942,0.5995,0.5982,0.5983,0.5985,0.6006,0.601,0.6013,0.597,0.5969,0.5969,0,0,0.5663,0.5681,0.5706,0.5725,0.5753,0.5768,0.5774,0.5804,0.5815,0.5849,0.5858,0.5882,0.5928,0.5949,0.5965,0.5997,0.6003,0.6006,0.6016,0.6036,0.6039,0.6042,0.6054,0.6057,0.6009,0.6009,0.6009,0,0.5667,0.5704,0.5719,0.5745,0.5762,0.5771,0.5798,0.5816,0.5852,0.5864,0.586,0.5919,0.5939,0.5981,0.5988,0.6001,0.601,0.6002,0.6037,0.604,0.6043,0.6054,0.6059,0.6009,0.6009,0.6009,0.6009,0,0.5707,0.5733,0.575,0.5783,0.5802,0.5828,0.5848,0.5866,0.5874,0.589,0.5925,0.595,0.5982,0.5993,0.6001,0.6035,0.6033,0.6033,0.6027,0.6047,0.6058,0.6062,0.6009,0.6009,0.6009,0.6009,0,0,0.5727,0.5769,0.5775,0.5791,0.5823,0.5844,0.5871,0.5901,0.5916,0.5941,0.5965,0.6004,0.6005,0.6024,0.6035,0.6053,0.6077,0.6051,0.6052,0.6055,0.6117,0.6116,0.6121,0.6081,0.6082,0.6083,0.6114,0,0.5754,0.5802,0.5816,0.5856,0.5881,0.5891,0.5915,0.5938,0.5953,0.5977,0.5995,0.6022,0.6021,0.6032,0.6051,0.607,0.609,0.6068,0.6104,0.6105,0.6096,0.6126,0.6126,0.6154,0.6119,0.6119,0.612,0,0.5792,0.5816,0.5859,0.5888,0.5899,0.592,0.5949,0.5972,0.5999,0.6009,0.603,0.604,0.607,0.6063,0.6105,0.609,0.6106,0.6117,0.6119,0.6123,0.6113,0.6131,0.6164,0.6168,0.6127,0.6126,0.6126,0,0.5803,0.5846,0.5877,0.589,0.5926,0.594,0.5956,0.5982,0.6,0.6026,0.6038,0.6068,0.6084,0.6108,0.6126,0.6119,0.6167,0.616,0.6176,0.6176,0.6186,0.6185,0.6221,0.6196,0.6196,0.6196,0.6196,0,0.5831,0.5856,0.5883,0.5901,0.5931,0.5948,0.5977,0.5994,0.6017,0.604,0.6052,0.6074,0.6096,0.6122,0.6136,0.6169,0.6177,0.6186,0.619,0.6185,0.6184,0.6195,0.6194,0.6197,0.6197,0.6197,0.6197,0,0.5847,0.5866,0.59,0.5931,0.594,0.596,0.5987,0.6006,0.6022,0.6052,0.606,0.6085,0.6116,0.6136,0.6176,0.6186,0.6221,0.6225,0.6212,0.6213,0.6228,0.6226,0.6273,0.628,0.6251,0.6251,0.6251,0,0.5864,0.5884,0.5917,0.5932,0.5948,0.5974,0.5991,0.601,0.6028,0.6061,0.6077,0.6108,0.6133,0.6182,0.6205,0.6235,0.6239,0.6253,0.6244,0.6238,0.6239,0.6238,0.624,0.6255,0.6255,0.6255,0.6255,0,0.5892,0.59,0.5925,0.5953,0.5974,0.5997,0.6021,0.6033,0.6056,0.6077,0.6107,0.6127,0.6167,0.6198,0.623,0.6248,0.6256,0.6258,0.6263,0.6259,0.625,0.6255,0.6216,0.6257,0.6257,0.6257,0.6257,0.6256,0.5909,0.5927,0.5953,0.598,0.6,0.6022,0.6042,0.606,0.6086,0.6119,0.6129,0.6161,0.6188,0.6233,0.6251,0.6277,0.6276,0.6283,0.6285,0.6287,0.6287,0.6246,0.6283,0.6283,0.6283,0.6283,0.6283,0,0.5937,0.5954,0.598,0.6012,0.6034,0.6038,0.6065,0.6083,0.6111,0.6135,0.616,0.6196,0.6226,0.6252,0.6283,0.6299,0.6304,0.6307,0.6306,0.631,0.6286,0.6278,0.6303,0.6303,0.6303,0.6303,0.6303,0.6303,0.5954,0.5985,0.5997,0.6038,0.6056,0.6086,0.6101,0.6122,0.6142,0.6181,0.6205,0.6221,0.6247,0.628,0.6309,0.6315,0.6326,0.6329,0.6336,0.6314,0.6311,0.6309,0.6302,0.6331,0.6331,0.6358,0.6358,0.6358]},{"header":{"parameterUnit":"m.s-1","parameterCategory":1,"la1":30.2991,"la2":30.254,"lo1":-89.0895,"lo2":-89.0444,"dy":0.0017,"dx":0.0017,"nx":28,"ny":28,"refTime":"2025-03-26T21:00:00:Z","depth":0,"parameterNumber":3,"parameterNumberName":"V-component_of_WINDS"},"data":[0,0,0,0,0,0,0,0,0,0,0,0,0,0,0,0,0,0,0,0,0,0,0,0,0,0,0,0,0,0,0,0,0,0,0,0,0,0,0,0,0,0,0,0,0,0,0,0,0,0,0,0,0,0,0,0,0,0,0.9721,0.9721,0,0.9721,0.9721,0.9721,0.9716,0.9716,0.9716,0.9716,0.9713,0.9713,0.9713,0,0,0,0,0,0,0,0,0,0,0,0,0,0.9711,0.9711,0.9721,0.9721,0.9721,0.9721,0.9721,0.9721,0.9716,0.9716,0.9716,0.9716,0.9713,0.9713,0.9713,0,0,0,0,0,0,0,0,0,0,0,0,0,0.9713,0.9711,0.9721,0.9719,0.9718,0.9721,0.9721,0.9721,0.9716,0.9716,0.9716,0.9716,0.9713,0.9713,0.9714,0.9718,0,0,0.9714,0.9714,0,0,0,0,0,0,0,0,0.9713,0.9714,0.9719,0.9719,0.9719,0.9718,0.9717,0.972,0.9716,0.9717,0.9716,0.9716,0.9715,0.9715,0.9715,0.9718,0.9717,0.9714,0.9714,0.9714,0.9714,0,0,0,0,0,0,0,0.9713,0.9714,0.9721,0.9719,0.9719,0.9716,0.9716,0.9717,0.9717,0.9717,0.9717,0.9717,0.9715,0.9715,0.9715,0.9717,0.9714,0.9714,0.9714,0.9714,0.9717,0.9717,0,0,0,0,0,0,0.9714,0.9714,0.9721,0.9721,0.9715,0.9716,0.9716,0.9719,0.9717,0.9717,0.9717,0.9717,0.9715,0.9715,0.9715,0.9717,0.9714,0.9714,0.9714,0.9717,0.9717,0.9717,0,0,0,0,0,0,0.9714,0.9714,0.9721,0.9717,0.9718,0.9716,0.9719,0.9719,0.9719,0.9717,0.9717,0.9718,0.9715,0.9715,0.9716,0.9717,0.9714,0.9714,0.9717,0.9717,0.9717,0.9722,0,0,0,0,0,0,0.9713,0.9714,0.9718,0.9717,0.9718,0.9724,0.9719,0.9719,0.972,0.9719,0.9718,0.9717,0.9715,0.9716,0.9716,0.9717,0.9714,0.9717,0.9717,0.9717,0.9721,0.9722,0.9722,0,0,0,0,0,0.9713,0.972,0.9718,0.9719,0.9722,0.9724,0.9724,0.9722,0.972,0.9722,0.9719,0.9717,0.9716,0.9716,0.9716,0.9717,0.9717,0.9717,0.9717,0.9721,0.9722,0.9722,0,0,0,0,0,0,0.9721,0.972,0.9718,0.9725,0.9724,0.9723,0.9726,0.9723,0.9723,0.9723,0.9719,0.9719,0.9719,0.9718,0.9718,0.9718,0.9716,0.9716,0.9719,0.9719,0.972,0.972,0.9714,0,0,0,0,0,0.9723,0.9726,0.9724,0.973,0.973,0.9728,0.9729,0.9727,0.9726,0.9725,0.9724,0.9722,0.972,0.972,0.9719,0.9721,0.9718,0.9721,0.9721,0.9721,0.9721,0.9718,0.9718,0.9718,0.9718,0.9718,0,0,0.9728,0.9728,0.973,0.9732,0.9731,0.9732,0.9728,0.973,0.9729,0.9726,0.9726,0.9724,0.9721,0.9721,0.9721,0.972,0.972,0.9722,0.9722,0.9722,0.9718,0.9718,0.9718,0.9718,0.9718,0.9718,0,0,0.9738,0.9739,0.9742,0.9741,0.974,0.9738,0.9738,0.9736,0.9735,0.9735,0.973,0.9729,0.9728,0.9725,0.9723,0.9726,0.9723,0.9726,0.9728,0.9724,0.9724,0.9724,0.9722,0.9722,0.9726,0.9726,0.9726,0,0.9744,0.9747,0.9744,0.9745,0.9744,0.974,0.9741,0.974,0.9738,0.9737,0.9735,0.9731,0.973,0.9727,0.9727,0.9727,0.9725,0.9726,0.9725,0.9725,0.9724,0.9722,0.9722,0.9726,0.9726,0.9726,0.9726,0,0.9753,0.9754,0.9756,0.9754,0.9753,0.9755,0.975,0.9749,0.9746,0.9743,0.974,0.9737,0.9734,0.9733,0.9731,0.9729,0.9727,0.9726,0.9723,0.9725,0.9722,0.9722,0.9726,0.9726,0.9726,0.9726,0,0,0.977,0.9763,0.9764,0.976,0.9757,0.9756,0.9755,0.9752,0.975,0.9747,0.9744,0.9742,0.9738,0.9736,0.9733,0.973,0.9728,0.9728,0.9728,0.9726,0.9721,0.9722,0.9721,0.9726,0.9726,0.9725,0.9721,0,0.9776,0.9776,0.9771,0.9771,0.977,0.9763,0.9762,0.9758,0.9754,0.975,0.9745,0.9742,0.974,0.9738,0.9735,0.9729,0.9727,0.9729,0.972,0.972,0.972,0.9721,0.9722,0.9718,0.972,0.972,0.972,0,0.9786,0.9782,0.9782,0.9774,0.9773,0.9772,0.9766,0.9764,0.9757,0.9754,0.9749,0.9745,0.974,0.9738,0.973,0.9732,0.9727,0.9723,0.9723,0.9721,0.972,0.9717,0.9717,0.9716,0.9719,0.9719,0.9719,0,0.9794,0.979,0.9788,0.9786,0.9777,0.9776,0.9772,0.9765,0.9762,0.9756,0.9753,0.9747,0.9743,0.9737,0.9729,0.9729,0.972,0.9718,0.9715,0.9715,0.9713,0.9713,0.9711,0.9713,0.9713,0.9713,0.9713,0,0.9802,0.9801,0.9791,0.979,0.9787,0.978,0.9777,0.9773,0.9766,0.9761,0.9755,0.9751,0.9742,0.9735,0.9729,0.9721,0.972,0.9715,0.9713,0.9715,0.9715,0.9712,0.9711,0.9713,0.9713,0.9713,0.9713,0,0.9811,0.9805,0.9802,0.9793,0.979,0.9788,0.978,0.9776,0.9771,0.9765,0.9763,0.9753,0.9745,0.9737,0.9726,0.9721,0.9712,0.9711,0.9715,0.9713,0.9709,0.9709,0.9703,0.9701,0.9706,0.9706,0.9706,0,0.9816,0.9815,0.9805,0.9801,0.9797,0.9792,0.9788,0.978,0.9776,0.9766,0.9763,0.9754,0.9746,0.9732,0.9723,0.9713,0.9711,0.9709,0.9709,0.9709,0.9708,0.9707,0.9705,0.9709,0.9709,0.9709,0.9709,0,0.9824,0.982,0.9815,0.9807,0.9802,0.9795,0.9789,0.9786,0.9776,0.977,0.9762,0.9756,0.9743,0.9733,0.9721,0.9715,0.9709,0.9709,0.9707,0.9708,0.971,0.9706,0.9713,0.9709,0.9709,0.9709,0.9709,0.9709,0.9829,0.9826,0.9818,0.9811,0.9805,0.9797,0.9793,0.9785,0.9778,0.9767,0.9762,0.9753,0.9742,0.9725,0.9719,0.9709,0.9708,0.9706,0.9705,0.9705,0.9704,0.9712,0.9707,0.9707,0.9707,0.9707,0.9707,0,0.9835,0.9828,0.9822,0.9812,0.9805,0.98,0.9791,0.9786,0.9777,0.9768,0.976,0.9747,0.9736,0.9725,0.9713,0.9707,0.9704,0.9704,0.9704,0.9701,0.9707,0.9708,0.9706,0.9706,0.9706,0.9706,0.9706,0.9706,0.9837,0.983,0.9824,0.9813,0.9806,0.9797,0.9791,0.9783,0.9775,0.9762,0.9753,0.9745,0.9734,0.972,0.9709,0.9705,0.97,0.9701,0.9696,0.9701,0.9702,0.9702,0.9703,0.97,0.97,0.9691,0.9691,0.9691]}]]